Weather History for Philip, SD

Change the Weather History Date:

Monday, October 14, 2013

  Actual Average Record
Temperature  
Mean Temperature 46 °F 49 °F  
Max Temperature 55 °F 64 °F 89 °F (1964)
Min Temperature 36 °F 35 °F 15 °F (2006)
Degree Days  
Heating Degree Days 19 16  
Month to date heating degree days 136 182  
Since 1 July heating degree days 199 368  
Cooling Degree Days 0 0  
Month to date cooling degree days 0 0  
Year to date cooling degree days 945 814  
Moisture  
Dew Point 43 °F    
Average Humidity 72    
Maximum Humidity 93    
Minimum Humidity 50    
Precipitation  
Precipitation 1.54 in 0.05 in 1.54 in (2013)
Month to date precipitation 3.50 0.70  
Year to date precipitation 14.49 15.57  
Sea Level Pressure  
Sea Level Pressure 29.87 in    
Wind  
Wind Speed 16 mph (NE)    
Max Wind Speed 30 mph    
Max Gust Speed 38 mph    
Visibility 7 miles    
Events Rain , Thunderstorm    
T = Trace of Precipitation, MM = Missing Value Source: NWS Daily Summary

Daily Weather History Graph

Daily Weather History Graph

Search for Another Location

Airport:

Trip Planner

Search our weather history database for the weather conditions in past years. The results will help you decide how hot, cold, wet, or windy it might be!

Date:

Astronomy

Oct. 14, 2013 Rise Set
Actual Time 7:00 AM MDT 6:03 PM MDT
Civil Twilight 6:31 AM MDT 6:32 PM MDT
Nautical Twilight 5:57 AM MDT 7:06 PM MDT
Astronomical Twilight 5:24 AM MDT 7:39 PM MDT
Moon 3:42 PM MDT (10/14) 2:09 AM MDT (10/14)
Length of Visible Light 12h 01m
Length of Day
11h 03m
Waxing Gibbous, 80% of the Moon is Illuminated
Oct 14
Waxing Gibbous
Oct 18
Full
Oct 26
Last Quarter
Nov 3
New
Nov 9
First Quarter

Hourly Weather History & Observations

Time (MDT) Temp. Windchill Dew Point Humidity Pressure Visibility Wind Dir Wind Speed Gust Speed Precip Events Conditions
12:55 AM 54.0 °F - 36.0 °F 51% 30.00 in 10.0 mi SE 10.4 mph 19.6 mph N/A   Overcast
1:55 AM 50.0 °F - 43.0 °F 77% 29.99 in 10.0 mi ESE 10.4 mph - 0.00 in Rain Light Rain
2:55 AM 48.9 °F - 44.1 °F 83% 29.94 in 10.0 mi ESE 12.7 mph - 0.03 in Rain Light Rain
3:55 AM 48.0 °F - 45.0 °F 89% 29.92 in 4.0 mi East 15.0 mph - 0.16 in Rain Rain
4:18 AM 48.2 °F - 44.6 °F 87% 29.91 in 7.0 mi ESE 17.3 mph 25.3 mph 0.05 in Rain Rain
4:55 AM 48.0 °F - 45.0 °F 89% 29.89 in 8.0 mi ESE 13.8 mph 23.0 mph 0.10 in Rain Rain
5:12 AM 48.2 °F - 44.6 °F 87% 29.90 in 9.0 mi East 13.8 mph - 0.02 in Rain Light Rain
5:17 AM 48.2 °F - 44.6 °F 87% 29.91 in 6.0 mi East 13.8 mph - 0.03 in Rain , Thunderstorm Thunderstorms and Rain
5:30 AM 48.2 °F - 44.6 °F 87% 29.90 in 4.0 mi East 13.8 mph - 0.09 in Rain , Thunderstorm Heavy Rain
5:55 AM 46.9 °F - 45.0 °F 93% 29.89 in 4.0 mi East 11.5 mph - 0.23 in Rain , Thunderstorm Heavy Rain
6:02 AM 46.4 °F 41.1 °F 44.6 °F 93% 29.89 in 3.0 mi East 11.5 mph - 0.06 in Rain Heavy Rain
6:10 AM 46.4 °F 41.1 °F 44.6 °F 93% 29.89 in 2.5 mi East 11.5 mph - 0.21 in Rain Heavy Rain
6:20 AM 46.4 °F 41.1 °F 44.6 °F 93% 29.88 in 3.0 mi East 11.5 mph - 0.31 in Rain Rain
6:29 AM 46.4 °F 40.7 °F 44.6 °F 93% 29.87 in 2.5 mi East 12.7 mph - 0.36 in Rain Heavy Rain
6:36 AM 46.4 °F 40.4 °F 44.6 °F 93% 29.87 in 3.0 mi East 13.8 mph - 0.39 in Rain Heavy Rain
6:55 AM 48.0 °F - 44.1 °F 86% 29.86 in 4.0 mi East 16.1 mph - 0.46 in Rain Light Rain
7:18 AM 46.4 °F 39.8 °F 44.6 °F 93% 29.86 in 3.0 mi East 16.1 mph 21.9 mph 0.03 in Rain Rain
7:32 AM 46.4 °F 40.1 °F 44.6 °F 93% 29.87 in 2.0 mi East 15.0 mph 23.0 mph 0.09 in Rain Heavy Rain
7:44 AM 46.4 °F 40.1 °F 44.6 °F 93% 29.86 in 6.0 mi East 15.0 mph - 0.13 in Rain Light Rain
7:55 AM 46.9 °F - 44.1 °F 90% 29.86 in 5.0 mi East 16.1 mph - 0.15 in Rain Light Rain
8:31 AM 46.4 °F 39.0 °F 44.6 °F 93% 29.84 in 10.0 mi East 19.6 mph - 0.00 in Rain Light Rain
8:55 AM 46.0 °F 38.8 °F 44.1 °F 93% 29.83 in 9.0 mi East 18.4 mph - 0.00 in Rain Light Rain
9:55 AM 46.9 °F - 44.1 °F 90% 29.81 in 10.0 mi ENE 15.0 mph - 0.01 in Rain Light Rain
10:55 AM 46.9 °F - 44.1 °F 90% 29.83 in 9.0 mi ENE 4.6 mph - 0.01 in Rain Light Rain
11:55 AM 46.9 °F - 45.0 °F 93% 29.79 in 10.0 mi NNE 10.4 mph - 0.11 in Rain Light Rain
12:55 PM 46.9 °F - 44.1 °F 90% 29.77 in 10.0 mi North 13.8 mph - 0.00 in   Overcast
1:55 PM 46.9 °F - 44.1 °F 90% 29.78 in 10.0 mi North 12.7 mph - N/A   Overcast
2:16 PM 46.4 °F 41.1 °F 44.6 °F 93% 29.79 in 3.0 mi North 11.5 mph - 0.00 in Rain Light Rain
2:34 PM 46.4 °F 41.9 °F 44.6 °F 93% 29.79 in 2.5 mi North 9.2 mph - 0.01 in Rain Light Rain
2:55 PM 46.9 °F - 44.1 °F 90% 29.80 in 2.5 mi NNW 10.4 mph - 0.01 in Rain Light Rain
3:02 PM 46.4 °F 41.1 °F 44.6 °F 93% 29.79 in 3.0 mi NNW 11.5 mph - 0.01 in Rain Light Rain
3:18 PM 46.4 °F 40.4 °F 44.6 °F 93% 29.79 in 2.5 mi NNW 13.8 mph - 0.02 in Rain Light Rain
3:29 PM 46.4 °F 40.7 °F 44.6 °F 93% 29.79 in 3.0 mi North 12.7 mph - 0.03 in Rain Rain
3:36 PM 46.4 °F 40.7 °F 44.6 °F 93% 29.79 in 3.0 mi North 12.7 mph - 0.04 in Rain Rain
3:55 PM 46.0 °F 39.3 °F 44.1 °F 93% 29.80 in 4.0 mi North 16.1 mph - 0.08 in Rain Rain
4:04 PM 46.4 °F 39.5 °F 42.8 °F 87% 29.79 in 6.0 mi NNW 17.3 mph - 0.00 in Rain Rain
4:55 PM 46.0 °F 39.6 °F 43.0 °F 89% 29.84 in 8.0 mi NNW 15.0 mph - 0.04 in Rain Light Rain
5:19 PM 46.4 °F 39.8 °F 42.8 °F 87% 29.84 in 6.0 mi NNW 16.1 mph - 0.03 in Rain Light Rain
5:38 PM 44.6 °F 38.1 °F 42.8 °F 93% 29.84 in 6.0 mi NNW 13.8 mph 23.0 mph 0.06 in Rain Rain
5:53 PM 44.6 °F 37.4 °F 42.8 °F 93% 29.84 in 10.0 mi NNW 16.1 mph - 0.07 in Rain Light Rain
5:55 PM 45.0 °F 37.4 °F 42.1 °F 90% 29.86 in 10.0 mi NNW 18.4 mph 24.2 mph 0.08 in Rain Light Rain
6:35 PM 44.6 °F 35.9 °F 39.2 °F 81% 29.85 in 10.0 mi NNW 23.0 mph 32.2 mph 0.03 in Rain Light Rain
6:55 PM 43.0 °F 34.5 °F 39.9 °F 89% 29.88 in 10.0 mi NNW 19.6 mph 28.8 mph 0.03 in Rain Light Rain
7:31 PM 42.8 °F 34.0 °F 39.2 °F 87% 29.88 in 10.0 mi NNW 20.7 mph 29.9 mph 0.01 in Rain Light Rain
7:55 PM 43.0 °F 34.2 °F 39.9 °F 89% 29.91 in 10.0 mi NNW 20.7 mph 31.1 mph 0.03 in Rain Light Rain
8:55 PM 39.9 °F 29.2 °F 37.0 °F 89% 29.95 in 10.0 mi NNW 25.3 mph 35.7 mph 0.01 in Rain Light Rain
9:07 PM 39.2 °F 28.7 °F 37.4 °F 93% 29.93 in 10.0 mi NNW 23.0 mph 36.8 mph 0.00 in Rain Light Rain
9:55 PM 37.9 °F 26.6 °F 35.1 °F 89% 29.98 in 10.0 mi NNW 25.3 mph 38.0 mph 0.00 in Rain Light Rain
10:55 PM 37.0 °F 25.4 °F 34.0 °F 89% 30.00 in 10.0 mi NNW 25.3 mph 35.7 mph 0.00 in Rain Light Rain
11:37 PM 37.4 °F 25.9 °F 35.6 °F 93% 29.99 in 10.0 mi NNW 25.3 mph 34.5 mph 0.00 in Rain Light Rain
11:51 PM 37.4 °F 26.9 °F 35.6 °F 93% 29.99 in 10.0 mi NNW 20.7 mph 33.4 mph 0.00 in Rain Light Rain
11:55 PM 37.0 °F 25.6 °F 35.1 °F 93% 30.02 in 10.0 mi NNW 24.2 mph 36.8 mph 0.00 in Rain Light Rain